SWA2553 KLAS-KBOI

Flight info

Callsign SWA2553
Flight time 1h 25m
Altitude 36000
Route RATPK3 FRNCK CRITO SPATS BROPH SPUUD4
Aircraft B737/M-SDE2E3FGHIRWXY/LB1

Departure

Time 2026-05-07 19:21
Airport Harry Reid International Airport (KLAS)

Arrival

Time 2026-05-07 20:46
Airport Boise Air Terminal/Gowen Field (KBOI)
Time Latitude Longitude Altitude Speed Heading
2026-05-07 19:01 36.08255 -115.15033 2115 ft 0 kts 301°
2026-05-07 19:12 36.08254 -115.15031 2115 ft 2 kts 301°
2026-05-07 19:12 36.08241 -115.15004 2115 ft 4 kts 301°
2026-05-07 19:12 36.08230 -115.14982 2112 ft 4 kts 301°
2026-05-07 19:13 36.08218 -115.14958 2111 ft 2 kts 301°
2026-05-07 19:13 36.08209 -115.14938 2111 ft 0 kts 301°
2026-05-07 19:14 36.08209 -115.14939 2111 ft 1 kts 301°
2026-05-07 19:15 36.08205 -115.14950 2111 ft 2 kts 212°
2026-05-07 19:15 36.08185 -115.14955 2111 ft 3 kts 188°
2026-05-07 19:15 36.08180 -115.14956 2111 ft 3 kts 185°
2026-05-07 19:15 36.08146 -115.14945 2113 ft 7 kts 155°
2026-05-07 19:16 36.08085 -115.14912 2114 ft 11 kts 156°
2026-05-07 19:16 36.08015 -115.14872 2116 ft 11 kts 155°
2026-05-07 19:16 36.07942 -115.14830 2116 ft 12 kts 155°
2026-05-07 19:16 36.07872 -115.14804 2116 ft 10 kts 147°
2026-05-07 19:17 36.07849 -115.14683 2110 ft 21 kts 93°
2026-05-07 19:17 36.07835 -115.14470 2104 ft 28 kts 94°
2026-05-07 19:17 36.07827 -115.14211 2095 ft 32 kts 90°
2026-05-07 19:17 36.07827 -115.13940 2093 ft 30 kts 90°
2026-05-07 19:18 36.07827 -115.13689 2087 ft 28 kts 90°
2026-05-07 19:18 36.07827 -115.13454 2083 ft 26 kts 90°
2026-05-07 19:18 36.07827 -115.13224 2072 ft 29 kts 90°
2026-05-07 19:18 36.07827 -115.12963 2062 ft 32 kts 90°
2026-05-07 19:19 36.07827 -115.12681 2049 ft 32 kts 90°
2026-05-07 19:19 36.07826 -115.12421 2050 ft 28 kts 90°
2026-05-07 19:19 36.07817 -115.12255 2040 ft 14 kts 114°
2026-05-07 19:19 36.07752 -115.12156 2039 ft 16 kts 131°
2026-05-07 19:20 36.07668 -115.12117 2040 ft 11 kts 192°
2026-05-07 19:20 36.07641 -115.12193 2045 ft 18 kts 269°
2026-05-07 19:20 36.07640 -115.12642 2054 ft 86 kts 270°
2026-05-07 19:20 36.07640 -115.13650 2086 ft 145 kts 270°
2026-05-07 19:21 36.07642 -115.15087 2194 ft 185 kts 271°
2026-05-07 19:21 36.07646 -115.16697 2935 ft 184 kts 270°
2026-05-07 19:21 36.07645 -115.18239 3761 ft 181 kts 270°
2026-05-07 19:21 36.07644 -115.19873 4075 ft 206 kts 270°
2026-05-07 19:22 36.07644 -115.21746 4311 ft 230 kts 270°
2026-05-07 19:22 36.07642 -115.23822 4598 ft 249 kts 270°
2026-05-07 19:22 36.07750 -115.25995 5247 ft 255 kts 286°
2026-05-07 19:22 36.08629 -115.27851 6099 ft 252 kts 318°
2026-05-07 19:23 36.10133 -115.28919 6994 ft 250 kts 341°
2026-05-07 19:23 36.11800 -115.29468 7784 ft 253 kts 347°
2026-05-07 19:23 36.13556 -115.29766 8601 ft 257 kts
2026-05-07 19:23 36.15252 -115.29083 9509 ft 262 kts 30°
2026-05-07 19:24 36.16613 -115.27461 10020 ft 285 kts 54°
2026-05-07 19:24 36.17629 -115.25244 10342 ft 311 kts 63°
2026-05-07 19:24 36.18472 -115.22648 10548 ft 338 kts 67°
2026-05-07 19:24 36.19306 -115.19840 10986 ft 354 kts 69°
2026-05-07 19:25 36.19727 -115.16813 11710 ft 362 kts 88°
2026-05-07 19:25 36.19701 -115.13732 12594 ft 363 kts 89°
2026-05-07 19:25 36.19666 -115.10586 13360 ft 366 kts 89°
2026-05-07 19:25 36.19641 -115.07408 14123 ft 370 kts 89°
2026-05-07 19:26 36.19627 -115.04211 14853 ft 373 kts 88°
2026-05-07 19:26 36.19622 -115.01016 15623 ft 376 kts 88°
2026-05-07 19:26 36.19621 -114.97756 16390 ft 380 kts 88°
2026-05-07 19:26 36.19620 -114.94461 17146 ft 384 kts 88°
2026-05-07 19:27 36.19629 -114.91123 17879 ft 388 kts 85°
2026-05-07 19:27 36.20180 -114.87873 18530 ft 387 kts 65°
2026-05-07 19:27 36.21541 -114.85010 19190 ft 386 kts 50°
2026-05-07 19:27 36.23240 -114.82434 19864 ft 388 kts 48°
2026-05-07 19:28 36.24970 -114.79911 20482 ft 392 kts 48°
2026-05-07 19:28 36.26750 -114.77318 21093 ft 396 kts 48°
2026-05-07 19:28 36.28531 -114.74690 21694 ft 399 kts 48°
2026-05-07 19:28 36.30318 -114.72023 22307 ft 403 kts 49°
2026-05-07 19:29 36.32107 -114.69331 22903 ft 406 kts 49°
2026-05-07 19:29 36.33915 -114.66601 23489 ft 410 kts 49°
2026-05-07 19:29 36.35708 -114.63892 23980 ft 413 kts 49°
2026-05-07 19:29 36.37649 -114.61251 24470 ft 413 kts 39°
2026-05-07 19:30 36.39908 -114.59028 25003 ft 413 kts 35°
2026-05-07 19:30 36.42236 -114.56914 25474 ft 416 kts 34°
2026-05-07 19:30 36.44562 -114.54813 25930 ft 419 kts 35°
2026-05-07 19:30 36.46911 -114.52650 26408 ft 421 kts 36°
2026-05-07 19:31 36.49258 -114.50444 26872 ft 423 kts 36°
2026-05-07 19:31 36.51614 -114.48206 27288 ft 426 kts 36°
2026-05-07 19:31 36.53976 -114.45956 27654 ft 430 kts 36°
2026-05-07 19:31 36.56434 -114.43805 28074 ft 432 kts 32°
2026-05-07 19:32 36.58950 -114.41823 28511 ft 433 kts 30°
2026-05-07 19:32 36.61534 -114.39871 28932 ft 435 kts 30°
2026-05-07 19:32 36.64143 -114.37916 29334 ft 437 kts 30°
2026-05-07 19:32 36.66750 -114.35952 29734 ft 439 kts 30°
2026-05-07 19:33 36.69326 -114.33991 30232 ft 437 kts 30°
2026-05-07 19:33 36.71905 -114.32010 30782 ft 433 kts 31°
2026-05-07 19:33 36.74471 -114.30026 31269 ft 432 kts 31°
2026-05-07 19:33 36.77020 -114.28047 31670 ft 432 kts 31°
2026-05-07 19:34 36.79571 -114.26062 32035 ft 432 kts 31°
2026-05-07 19:34 36.82124 -114.24074 32407 ft 432 kts 31°
2026-05-07 19:34 36.84677 -114.22083 32842 ft 431 kts 31°
2026-05-07 19:34 36.87183 -114.20128 33276 ft 429 kts 31°
2026-05-07 19:35 36.89716 -114.18150 33681 ft 428 kts 31°
2026-05-07 19:35 36.92241 -114.16178 34036 ft 427 kts 31°
2026-05-07 19:35 36.94768 -114.14203 34345 ft 427 kts 31°
2026-05-07 19:35 36.97279 -114.12238 34688 ft 425 kts 31°
2026-05-07 19:36 36.99788 -114.10273 35012 ft 424 kts 31°
2026-05-07 19:36 37.02287 -114.08315 35316 ft 424 kts 31°
2026-05-07 19:36 37.04757 -114.06378 35608 ft 423 kts 31°
2026-05-07 19:36 37.07260 -114.04414 35815 ft 425 kts 31°
2026-05-07 19:37 37.09775 -114.02439 35986 ft 426 kts 31°
2026-05-07 19:37 37.12283 -114.00468 35981 ft 426 kts 31°
2026-05-07 19:37 37.17273 -113.96541 36004 ft 423 kts 31°
2026-05-07 19:38 37.22248 -113.92619 36008 ft 422 kts 31°
2026-05-07 19:38 37.27218 -113.88696 36007 ft 421 kts 31°
2026-05-07 19:39 37.32156 -113.84792 36006 ft 421 kts 31°
2026-05-07 19:39 37.37115 -113.80864 36019 ft 420 kts 31°
2026-05-07 19:40 37.42068 -113.76935 36019 ft 421 kts 31°
2026-05-07 19:40 37.47039 -113.72987 36031 ft 423 kts 31°
2026-05-07 19:41 37.51993 -113.69043 36026 ft 425 kts 31°
2026-05-07 19:41 37.57013 -113.65042 36021 ft 427 kts 31°
2026-05-07 19:42 37.62014 -113.61050 36016 ft 428 kts 31°
2026-05-07 19:42 37.67428 -113.58129 36032 ft 423 kts
2026-05-07 19:43 37.70375 -113.58106 36006 ft 424 kts 353°
2026-05-07 19:43 37.73201 -113.58956 36003 ft 425 kts 339°
2026-05-07 19:43 37.78584 -113.62074 36008 ft 426 kts 335°
2026-05-07 19:44 37.83914 -113.65386 35999 ft 426 kts 335°
2026-05-07 19:44 37.89256 -113.68664 35999 ft 425 kts 335°
2026-05-07 19:45 37.94560 -113.71871 35998 ft 425 kts 336°
2026-05-07 19:45 37.99896 -113.75082 35992 ft 424 kts 336°
2026-05-07 19:46 38.05229 -113.78293 36003 ft 424 kts 335°
2026-05-07 19:46 38.10566 -113.81514 36012 ft 425 kts 335°
2026-05-07 19:47 38.15916 -113.84739 35997 ft 425 kts 336°
2026-05-07 19:47 38.21262 -113.87971 36005 ft 425 kts 335°
2026-05-07 19:48 38.26573 -113.91201 36008 ft 425 kts 335°
2026-05-07 19:48 38.31912 -113.94448 36017 ft 425 kts 335°
2026-05-07 19:49 38.37260 -113.97691 36022 ft 425 kts 335°
2026-05-07 19:49 38.42599 -114.00949 36012 ft 425 kts 335°
2026-05-07 19:50 38.47902 -114.04190 36007 ft 425 kts 335°
2026-05-07 19:50 38.53247 -114.07460 35997 ft 425 kts 335°
2026-05-07 19:51 38.58590 -114.10732 36014 ft 424 kts 335°
2026-05-07 19:51 38.63878 -114.13976 36002 ft 424 kts 335°
2026-05-07 19:52 38.69203 -114.17248 35993 ft 424 kts 335°
2026-05-07 19:52 38.74531 -114.20527 35993 ft 423 kts 335°
2026-05-07 19:53 38.78938 -114.23247 35993 ft 423 kts 335°
2026-05-07 19:53 38.85106 -114.27050 36000 ft 423 kts 335°
2026-05-07 19:54 38.90404 -114.30329 36000 ft 422 kts 335°
2026-05-07 19:54 38.94809 -114.33060 36018 ft 422 kts 335°
2026-05-07 19:55 39.00115 -114.36360 36006 ft 422 kts 335°
2026-05-07 19:55 39.05377 -114.39620 35987 ft 422 kts 335°
2026-05-07 19:56 39.10675 -114.42917 36002 ft 421 kts 335°
2026-05-07 19:56 39.15923 -114.46192 36039 ft 421 kts 334°
2026-05-07 19:57 39.21192 -114.49484 36063 ft 420 kts 334°
2026-05-07 19:57 39.26457 -114.52777 36099 ft 419 kts 335°
2026-05-07 19:58 39.31968 -114.55030 36124 ft 420 kts 351°
2026-05-07 19:58 39.37805 -114.55410 36008 ft 419 kts 357°
2026-05-07 19:59 39.43635 -114.55591 36018 ft 418 kts 357°
2026-05-07 19:59 39.49422 -114.55801 36036 ft 418 kts 356°
2026-05-07 20:00 39.55271 -114.56043 36020 ft 419 kts 356°
2026-05-07 20:00 39.61092 -114.56279 36031 ft 417 kts 356°
2026-05-07 20:01 39.66858 -114.56509 36023 ft 417 kts 356°
2026-05-07 20:01 39.72660 -114.56746 36027 ft 416 kts 356°
2026-05-07 20:02 39.78466 -114.56985 36020 ft 416 kts 356°
2026-05-07 20:02 39.84245 -114.57223 36026 ft 416 kts 356°
2026-05-07 20:03 39.90035 -114.57463 36024 ft 415 kts 356°
2026-05-07 20:03 39.95789 -114.57701 36029 ft 415 kts 356°
2026-05-07 20:04 40.01581 -114.57945 36032 ft 416 kts 356°
2026-05-07 20:04 40.07338 -114.58181 36036 ft 416 kts 356°
2026-05-07 20:05 40.13121 -114.58421 36030 ft 416 kts 356°
2026-05-07 20:05 40.18920 -114.58662 36024 ft 415 kts 356°
2026-05-07 20:06 40.24691 -114.58904 36025 ft 414 kts 356°
2026-05-07 20:06 40.30420 -114.59143 36023 ft 414 kts 356°
2026-05-07 20:07 40.36183 -114.59383 36039 ft 414 kts 355°
2026-05-07 20:07 40.41953 -114.59626 36033 ft 414 kts 355°
2026-05-07 20:08 40.47680 -114.59867 36034 ft 413 kts 355°
2026-05-07 20:08 40.53446 -114.60110 36044 ft 413 kts 355°
2026-05-07 20:09 40.59152 -114.60350 36039 ft 412 kts 355°
2026-05-07 20:10 40.67752 -114.60715 36043 ft 411 kts 355°
2026-05-07 20:10 40.73479 -114.60956 36057 ft 412 kts 355°
2026-05-07 20:11 40.79189 -114.61505 36051 ft 410 kts 352°
2026-05-07 20:11 40.84841 -114.62288 36032 ft 410 kts 351°
2026-05-07 20:12 40.90533 -114.63077 36049 ft 410 kts 351°
2026-05-07 20:12 40.96184 -114.63836 36031 ft 410 kts 351°
2026-05-07 20:13 41.01867 -114.64587 36028 ft 410 kts 351°
2026-05-07 20:13 41.07546 -114.65335 36027 ft 409 kts 351°
2026-05-07 20:14 41.13221 -114.66083 36028 ft 408 kts 351°
2026-05-07 20:14 41.18853 -114.66828 36017 ft 408 kts 351°
2026-05-07 20:15 41.24511 -114.67577 36014 ft 408 kts 351°
2026-05-07 20:15 41.30166 -114.68327 36023 ft 407 kts 351°
2026-05-07 20:16 41.35780 -114.69073 36016 ft 407 kts 351°
2026-05-07 20:16 41.41428 -114.69825 35999 ft 407 kts 351°
2026-05-07 20:17 41.47075 -114.70578 36005 ft 407 kts 351°
2026-05-07 20:17 41.52711 -114.71331 36002 ft 407 kts 351°
2026-05-07 20:18 41.58314 -114.72081 35999 ft 407 kts 351°
2026-05-07 20:18 41.63960 -114.72838 36000 ft 406 kts 351°
2026-05-07 20:19 41.69592 -114.73594 36004 ft 406 kts 350°
2026-05-07 20:19 41.75182 -114.74346 35992 ft 406 kts 350°
2026-05-07 20:20 41.80807 -114.75104 35984 ft 406 kts 350°
2026-05-07 20:20 41.86430 -114.75864 35998 ft 404 kts 350°
2026-05-07 20:21 41.92004 -114.76616 35985 ft 404 kts 350°
2026-05-07 20:21 41.97604 -114.77375 35992 ft 403 kts 350°
2026-05-07 20:22 42.03192 -114.78134 35987 ft 404 kts 350°
2026-05-07 20:22 42.08752 -114.78891 35985 ft 404 kts 350°
2026-05-07 20:23 42.14352 -114.79650 35941 ft 402 kts 350°
2026-05-07 20:23 42.19914 -114.80409 35990 ft 402 kts 350°
2026-05-07 20:24 42.25492 -114.81174 36005 ft 403 kts 349°
2026-05-07 20:24 42.31039 -114.81935 35961 ft 404 kts 349°
2026-05-07 20:24 42.33872 -114.82326 35350 ft 411 kts 349°
2026-05-07 20:25 42.36721 -114.82717 34683 ft 411 kts 349°
2026-05-07 20:25 42.39571 -114.83108 33961 ft 412 kts 349°
2026-05-07 20:25 42.42434 -114.83501 33209 ft 411 kts 349°
2026-05-07 20:25 42.45260 -114.83887 32652 ft 406 kts 349°
2026-05-07 20:26 42.48044 -114.84269 32108 ft 402 kts 350°
2026-05-07 20:26 42.50813 -114.84650 31573 ft 398 kts 350°
2026-05-07 20:26 42.53556 -114.85028 31041 ft 395 kts 350°
2026-05-07 20:26 42.56288 -114.85406 30520 ft 391 kts 350°
2026-05-07 20:27 42.58996 -114.85781 29996 ft 389 kts 350°
2026-05-07 20:27 42.61680 -114.86153 29405 ft 385 kts 349°
2026-05-07 20:27 42.64296 -114.86515 28843 ft 381 kts 349°
2026-05-07 20:27 42.66931 -114.86880 28321 ft 377 kts 349°
2026-05-07 20:28 42.69525 -114.87275 27767 ft 371 kts 345°
2026-05-07 20:28 42.71917 -114.88396 27302 ft 360 kts 330°
2026-05-07 20:28 42.73992 -114.90250 26753 ft 355 kts 317°
2026-05-07 20:28 42.75747 -114.92588 26250 ft 351 kts 314°
2026-05-07 20:29 42.77397 -114.94982 25733 ft 349 kts 313°
2026-05-07 20:29 42.79038 -114.97403 25225 ft 347 kts 313°
2026-05-07 20:29 42.80679 -114.99812 24733 ft 344 kts 313°
2026-05-07 20:29 42.82313 -115.02191 24226 ft 343 kts 314°
2026-05-07 20:30 42.83948 -115.04555 23718 ft 342 kts 314°
2026-05-07 20:30 42.85582 -115.06909 23147 ft 341 kts 314°
2026-05-07 20:30 42.87194 -115.09228 22620 ft 340 kts 314°
2026-05-07 20:30 42.88816 -115.11563 22102 ft 338 kts 314°
2026-05-07 20:31 42.90432 -115.13890 21623 ft 337 kts 313°
2026-05-07 20:31 42.92040 -115.16208 21124 ft 335 kts 313°
2026-05-07 20:31 42.93640 -115.18521 20633 ft 333 kts 313°
2026-05-07 20:31 42.95206 -115.20792 20140 ft 332 kts 313°
2026-05-07 20:32 42.96791 -115.23094 19635 ft 331 kts 313°
2026-05-07 20:32 42.98370 -115.25391 19131 ft 330 kts 313°
2026-05-07 20:32 42.99941 -115.27677 18636 ft 329 kts 313°
2026-05-07 20:32 43.01480 -115.29916 18137 ft 326 kts 313°
2026-05-07 20:33 43.03029 -115.32175 17585 ft 323 kts 313°
2026-05-07 20:33 43.04560 -115.34407 17064 ft 321 kts 312°
2026-05-07 20:33 43.06082 -115.36627 16546 ft 318 kts 312°
2026-05-07 20:33 43.07592 -115.38832 16057 ft 315 kts 312°
2026-05-07 20:34 43.09087 -115.41016 15569 ft 313 kts 312°
2026-05-07 20:34 43.10573 -115.43188 15110 ft 311 kts 312°
2026-05-07 20:34 43.12043 -115.45338 14624 ft 309 kts 312°
2026-05-07 20:34 43.13505 -115.47479 14157 ft 306 kts 312°
2026-05-07 20:35 43.14952 -115.49599 13766 ft 303 kts 311°
2026-05-07 20:35 43.16367 -115.51669 13530 ft 299 kts 311°
2026-05-07 20:35 43.17787 -115.53746 13272 ft 299 kts 311°
2026-05-07 20:35 43.19214 -115.55836 12854 ft 299 kts 311°
2026-05-07 20:36 43.20608 -115.57876 12759 ft 286 kts 311°
2026-05-07 20:36 43.21942 -115.59832 12604 ft 275 kts 311°
2026-05-07 20:36 43.23230 -115.61722 12283 ft 271 kts 311°
2026-05-07 20:36 43.24524 -115.63621 11858 ft 272 kts 311°
2026-05-07 20:37 43.25802 -115.65499 11430 ft 273 kts 311°
2026-05-07 20:37 43.27096 -115.67401 11027 ft 272 kts 311°
2026-05-07 20:37 43.28440 -115.69255 10471 ft 277 kts 315°
2026-05-07 20:37 43.29855 -115.71059 10166 ft 272 kts 315°
2026-05-07 20:38 43.31227 -115.72791 9942 ft 265 kts 315°
2026-05-07 20:38 43.32576 -115.74503 9552 ft 264 kts 315°
2026-05-07 20:38 43.33898 -115.76191 9190 ft 262 kts 315°
2026-05-07 20:38 43.35227 -115.77896 8818 ft 260 kts 315°
2026-05-07 20:39 43.36541 -115.79585 8568 ft 255 kts 315°
2026-05-07 20:39 43.37827 -115.81208 8419 ft 245 kts 316°
2026-05-07 20:39 43.38977 -115.82967 8057 ft 244 kts 306°
2026-05-07 20:39 43.39990 -115.84771 7956 ft 234 kts 308°
2026-05-07 20:40 43.40995 -115.86488 7811 ft 226 kts 308°
2026-05-07 20:40 43.41954 -115.88099 7736 ft 215 kts 308°
2026-05-07 20:40 43.42884 -115.89664 7636 ft 206 kts 308°
2026-05-07 20:40 43.43793 -115.91196 7436 ft 209 kts 308°
2026-05-07 20:41 43.44688 -115.92770 7248 ft 210 kts 304°
2026-05-07 20:41 43.45528 -115.94419 6989 ft 210 kts 304°
2026-05-07 20:41 43.46345 -115.96040 6802 ft 207 kts 304°
2026-05-07 20:41 43.47162 -115.97656 6566 ft 201 kts 304°
2026-05-07 20:42 43.47690 -115.98698 6394 ft 197 kts 304°
2026-05-07 20:42 43.48719 -116.00725 6044 ft 192 kts 304°
2026-05-07 20:42 43.49455 -116.02235 5795 ft 188 kts 300°
2026-05-07 20:42 43.49851 -116.03277 5654 ft 184 kts 295°
2026-05-07 20:43 43.50382 -116.04862 5387 ft 180 kts 295°
2026-05-07 20:43 43.50924 -116.06402 5169 ft 177 kts 297°
2026-05-07 20:43 43.51467 -116.07914 4903 ft 175 kts 295°
2026-05-07 20:43 43.51961 -116.09444 4633 ft 177 kts 296°
2026-05-07 20:44 43.52478 -116.10989 4466 ft 178 kts 297°
2026-05-07 20:44 43.53011 -116.12547 4237 ft 181 kts 296°
2026-05-07 20:44 43.53529 -116.14107 3979 ft 174 kts 294°
2026-05-07 20:44 43.54017 -116.15556 3804 ft 156 kts 295°
2026-05-07 20:45 43.54460 -116.16824 3581 ft 143 kts 294°
2026-05-07 20:45 43.54877 -116.18038 3368 ft 138 kts 292°
2026-05-07 20:45 43.55288 -116.19239 3181 ft 139 kts 293°
2026-05-07 20:45 43.55695 -116.20438 2997 ft 135 kts 295°
2026-05-07 20:46 43.56085 -116.21571 2881 ft 123 kts 294°
2026-05-07 20:46 43.56387 -116.22456 2880 ft 81 kts 295°
2026-05-07 20:46 43.56559 -116.22958 2882 ft 31 kts 295°
2026-05-07 20:46 43.56623 -116.23147 2881 ft 14 kts 295°
2026-05-07 20:47 43.56671 -116.23179 2880 ft 8 kts 26°
2026-05-07 20:47 43.56727 -116.23141 2880 ft 10 kts 26°
2026-05-07 20:47 43.56805 -116.23091 2878 ft 14 kts 24°
2026-05-07 20:47 43.56882 -116.23041 2879 ft 7 kts 26°
2026-05-07 20:48 43.56900 -116.22988 2880 ft 7 kts 102°
2026-05-07 20:48 43.56873 -116.22904 2880 ft 13 kts 116°
2026-05-07 20:48 43.56824 -116.22760 2880 ft 21 kts 115°
2026-05-07 20:48 43.56758 -116.22566 2880 ft 23 kts 115°
2026-05-07 20:49 43.56693 -116.22375 2880 ft 22 kts 115°
2026-05-07 20:49 43.56638 -116.22214 2880 ft 11 kts 116°
2026-05-07 20:49 43.56608 -116.22116 2880 ft 11 kts 92°
2026-05-07 20:49 43.56652 -116.22061 2880 ft 8 kts 13°
2026-05-07 20:50 43.56691 -116.22036 2880 ft 4 kts 30°
2026-05-07 20:50 43.56708 -116.22020 2880 ft 0 kts 32°